Notices

What's New in latest Release from April 7th, 2021:

- Updated Glossary, including Speed of Maximum Gust, and Total Hourly Precipitation

- Updated national and regional climate services offices contacts and prices information

- Addition of station inventory lists for 1981-2010, 1971-2000, and 1961-1990 Normals.

If you haven't already, please take our survey and provide feedback about our website: https://eccc.sondage-survey.ca/f/LanguageSelection.aspx?s=442ca660-fcf1-47c0-95a9-59707d6fd709

Hourly Data Report for August 29, 2015

IQALUIT CLIMATE
NUNAVUT

63°44'50.000" N
68°32'40.000" W
33.50 m
2402592
71321
XFB

Download Data

Hourly Data (August 2015)
Hourly Data Report for August 29, 2015
TIME
LST
Temp Definition
°C
Dew Point Definition
°C
Rel Hum Definition
%
Precip. Amount Definition
mm

Wind Dir Definition
10's deg

Wind Spd Definition
km/h
Visibility Definition
km
Stn Press Definition
kPa
Hmdx Definition


Wind Chill Definition


Weather Definition


00:00 3.8 3.2 96 0.0 28 3   100.34     LegendNANA
01:00 4.1 3.2 94 0.0 32 9   100.37     LegendNANA
02:00 2.7 1.6 93 0.0 35 8   100.38     LegendNANA
03:00 2.3 1.1 92 0.0 35 9   100.39     LegendNANA
04:00 2.5 1.3 92 0.0 33 11   100.40     LegendNANA
05:00 3.1 2.2 94 0.0 33 9   100.42     LegendNANA
06:00 3.0 1.8 92 0.0 32 13   100.46     LegendNANA
07:00 4.2 2.6 90 0.0 32 14   100.49     LegendNANA
08:00 6.2 3.4 82 0.0 33 15   100.49     LegendNANA
09:00 7.4 3.3 75 0.0 33 17   100.47     LegendNANA
10:00 8.1 3.7 74 0.0 32 18   100.46     LegendNANA
11:00 8.2 3.5 72 0.0 32 18   100.45     LegendNANA
12:00 8.2 3.1 70 0.0 31 21   100.42     LegendNANA
13:00 8.7 2.9 67 0.0 32 19   100.42     LegendNANA
14:00 9.0 2.5 64 0.0 32 21   100.41     LegendNANA
15:00 9.1 2.0 61 0.0 33 21   100.39     LegendNANA
16:00 9.0 1.2 58 0.0 32 20   100.38     LegendNANA
17:00 8.7 1.1 59 0.0 34 18   100.39     LegendNANA
18:00 7.9 1.7 65 0.0 34 15   100.38     LegendNANA
19:00 6.9 2.2 72 0.0 32 10   100.39     LegendNANA
20:00 6.9 2.5 73 0.0 32 9   100.40     LegendNANA
21:00 6.7 2.7 76 0.0 31 11   100.39     LegendNANA
22:00 6.2 3.0 80 0.0 33 15   100.37     LegendNANA
23:00 5.9 3.3 84 0.0 33 14   100.37     LegendNANA

Notes on Data Quality.

Legend

  • E = Estimated
  • M = Missing
  • NA = Not Available*
  • [empty] = Indicates an unobserved value
Date modified: